QTR295 LEMD-EDDF

Flight info

Callsign QTR295
Flight time N/A
Altitude 38000
Route PINA4N PINAR N870 SEGRE N871 RONNY/N0487F400 N871 TOPTU DCT TOU DCT GAI DCT MEN DCT NINUN DCT LATAM DCT ETREK DCT LTP DCT SOPLO DCT OMASI DCT KINNI DCT SOSAL DCT KORED DCT BERSU DCT DITON/N0490F390 DCT LADOL/N0490F400 T163 EMPAX EMPAX5B
Aircraft A35K/H-SDE2E3GHIJ3J4J5LM1ORWXY/LB1D1

Departure

Time N/A
Airport Adolfo Suárez Madrid–Barajas Airport (LEMD)

Arrival

Time 2026-05-06 22:19
Airport Frankfurt Main Airport (EDDF)
Time Latitude Longitude Altitude Speed Heading
2026-05-06 20:23 41.30737 -2.07380 27627 ft 480 kts 37°
2026-05-06 20:23 41.33348 -2.04581 28068 ft 483 kts 37°
2026-05-06 20:23 41.35973 -2.01764 28521 ft 486 kts 37°
2026-05-06 20:24 41.38617 -1.98924 28944 ft 490 kts 37°
2026-05-06 20:24 41.41277 -1.96066 29400 ft 493 kts 37°
2026-05-06 20:24 41.43954 -1.93187 29834 ft 497 kts 37°
2026-05-06 20:24 41.46655 -1.90280 30227 ft 501 kts 37°
2026-05-06 20:25 41.49374 -1.87350 30594 ft 504 kts 37°
2026-05-06 20:25 41.52109 -1.84399 30954 ft 507 kts 37°
2026-05-06 20:25 41.54864 -1.81423 31326 ft 511 kts 37°
2026-05-06 20:25 41.57628 -1.78434 31700 ft 513 kts 37°
2026-05-06 20:26 41.60374 -1.75460 32049 ft 516 kts 37°
2026-05-06 20:26 41.63161 -1.72439 32501 ft 516 kts 37°
2026-05-06 20:26 41.65941 -1.69421 33026 ft 514 kts 37°
2026-05-06 20:26 41.68718 -1.66403 33516 ft 514 kts 37°
2026-05-06 20:27 41.71487 -1.63390 33980 ft 514 kts 37°
2026-05-06 20:27 41.74258 -1.60373 34406 ft 513 kts 37°
2026-05-06 20:27 41.77030 -1.57350 34825 ft 513 kts 37°
2026-05-06 20:27 41.79786 -1.54343 35286 ft 511 kts 37°
2026-05-06 20:28 41.82541 -1.51332 35621 ft 512 kts 37°
2026-05-06 20:28 41.85311 -1.48303 35857 ft 515 kts 37°
2026-05-06 20:28 41.88091 -1.45260 36188 ft 515 kts 37°
2026-05-06 20:28 41.90864 -1.42219 36552 ft 515 kts 37°
2026-05-06 20:29 41.93644 -1.39168 36923 ft 515 kts 37°
2026-05-06 20:29 41.96417 -1.36120 37262 ft 516 kts 37°
2026-05-06 20:29 41.99197 -1.33060 37642 ft 515 kts 37°
2026-05-06 20:29 42.01971 -1.30005 37939 ft 517 kts 37°
2026-05-06 20:30 42.10409 -1.20695 37973 ft 532 kts 37°
2026-05-06 20:31 42.16160 -1.14334 37977 ft 537 kts 37°
2026-05-06 20:31 42.21934 -1.07919 37986 ft 539 kts 37°
2026-05-06 20:32 42.27718 -1.01478 37983 ft 539 kts 37°
2026-05-06 20:32 42.33494 -0.95034 37983 ft 539 kts 37°
2026-05-06 20:33 42.39271 -0.88574 37981 ft 539 kts 37°
2026-05-06 20:33 42.44585 -0.81436 37993 ft 539 kts 49°
2026-05-06 20:34 42.49258 -0.73482 37985 ft 537 kts 51°
2026-05-06 20:34 42.53723 -0.65568 38003 ft 523 kts 51°
2026-05-06 20:35 42.58117 -0.57747 37994 ft 520 kts 51°
2026-05-06 20:35 42.62518 -0.49937 38010 ft 520 kts 51°
2026-05-06 20:36 42.66957 -0.42189 38008 ft 520 kts 50°
2026-05-06 20:36 42.71417 -0.34453 38014 ft 520 kts 50°
2026-05-06 20:37 42.75837 -0.26756 38011 ft 520 kts 50°
2026-05-06 20:37 42.80276 -0.18994 38017 ft 519 kts 50°
2026-05-06 20:38 42.84703 -0.11217 38019 ft 520 kts 51°
2026-05-06 20:38 42.89125 -0.03422 38038 ft 520 kts 51°
2026-05-06 20:39 42.93544 0.04388 38026 ft 520 kts 51°
2026-05-06 20:39 42.97966 0.12218 38031 ft 521 kts 51°
2026-05-06 20:40 43.02385 0.20062 38049 ft 521 kts 51°
2026-05-06 20:40 43.06794 0.27912 38030 ft 520 kts 51°
2026-05-06 20:41 43.11195 0.35769 38028 ft 520 kts 51°
2026-05-06 20:41 43.15593 0.43639 38028 ft 521 kts 51°
2026-05-06 20:42 43.19991 0.51530 38022 ft 521 kts 51°
2026-05-06 20:42 43.24385 0.59436 38026 ft 521 kts 51°
2026-05-06 20:43 43.28763 0.67334 38015 ft 520 kts 51°
2026-05-06 20:43 43.33142 0.75256 38018 ft 520 kts 51°
2026-05-06 20:44 43.37509 0.83177 38016 ft 521 kts 51°
2026-05-06 20:44 43.41885 0.91136 38017 ft 522 kts 51°
2026-05-06 20:45 43.46251 0.99098 38020 ft 520 kts 51°
2026-05-06 20:45 43.50602 1.07054 38012 ft 520 kts 51°
2026-05-06 20:46 43.54944 1.15016 38013 ft 520 kts 51°
2026-05-06 20:46 43.58554 1.21651 37992 ft 521 kts 51°
2026-05-06 20:47 43.62903 1.29665 38025 ft 522 kts 52°
2026-05-06 20:47 43.67247 1.37690 38021 ft 521 kts 52°
2026-05-06 20:48 43.72286 1.47030 38017 ft 521 kts 52°
2026-05-06 20:48 43.75911 1.53768 38010 ft 521 kts 52°
2026-05-06 20:49 43.80241 1.61834 38006 ft 523 kts 52°
2026-05-06 20:49 43.84570 1.69920 38000 ft 523 kts 52°
2026-05-06 20:50 43.88887 1.78008 37996 ft 522 kts 52°
2026-05-06 20:50 43.93174 1.86061 37999 ft 522 kts 52°
2026-05-06 20:51 43.97481 1.94174 37999 ft 522 kts 52°
2026-05-06 20:51 44.01792 2.02317 38004 ft 524 kts 52°
2026-05-06 20:52 44.06092 2.10463 37997 ft 522 kts 52°
2026-05-06 20:52 44.10373 2.18596 38002 ft 521 kts 52°
2026-05-06 20:53 44.14654 2.26751 38001 ft 521 kts 52°
2026-05-06 20:53 44.18928 2.34917 38003 ft 522 kts 52°
2026-05-06 20:54 44.23206 2.43109 37999 ft 522 kts 53°
2026-05-06 20:54 44.27468 2.51297 38000 ft 522 kts 53°
2026-05-06 20:55 44.31726 2.59502 37994 ft 521 kts 53°
2026-05-06 20:55 44.35974 2.67710 37987 ft 521 kts 53°
2026-05-06 20:56 44.40225 2.75944 38002 ft 523 kts 53°
2026-05-06 20:56 44.44440 2.84134 38004 ft 522 kts 53°
2026-05-06 20:57 44.48672 2.92381 37992 ft 521 kts 53°
2026-05-06 20:57 44.52896 3.00636 38001 ft 521 kts 53°
2026-05-06 20:58 44.57118 3.08909 37999 ft 522 kts 53°
2026-05-06 20:58 44.61210 3.17323 37998 ft 522 kts 59°
2026-05-06 20:59 44.64856 3.26147 37997 ft 522 kts 60°
2026-05-06 20:59 44.68413 3.35027 37996 ft 522 kts 60°
2026-05-06 21:00 44.71955 3.43932 37994 ft 522 kts 60°
2026-05-06 21:00 44.75519 3.52898 37991 ft 531 kts 60°
2026-05-06 21:01 44.79150 3.62043 37988 ft 537 kts 60°
2026-05-06 21:01 44.82786 3.71233 37988 ft 537 kts 60°
2026-05-06 21:02 44.86389 3.80370 37991 ft 537 kts 60°
2026-05-06 21:02 44.90011 3.89586 37983 ft 538 kts 60°
2026-05-06 21:03 44.93637 3.98839 37985 ft 538 kts 60°
2026-05-06 21:03 44.97244 4.08079 37983 ft 537 kts 60°
2026-05-06 21:04 45.00841 4.17321 37982 ft 537 kts 60°
2026-05-06 21:04 45.04429 4.26574 37982 ft 537 kts 61°
2026-05-06 21:05 45.08009 4.35838 37981 ft 537 kts 61°
2026-05-06 21:05 45.11585 4.45116 37985 ft 537 kts 61°
2026-05-06 21:06 45.15148 4.54391 37977 ft 536 kts 61°
2026-05-06 21:06 45.18704 4.63680 37965 ft 535 kts 62°
2026-05-06 21:07 45.22248 4.72962 37966 ft 539 kts 62°
2026-05-06 21:07 45.25818 4.82359 37977 ft 543 kts 62°
2026-05-06 21:08 45.29397 4.91813 37979 ft 542 kts 62°
2026-05-06 21:08 45.31150 4.96453 37982 ft 530 kts 62°
2026-05-06 21:08 45.32857 5.00979 37986 ft 524 kts 62°
2026-05-06 21:09 45.36278 5.10072 37989 ft 521 kts 62°
2026-05-06 21:09 45.39695 5.19182 37992 ft 522 kts 62°
2026-05-06 21:10 45.43105 5.28306 37993 ft 522 kts 62°
2026-05-06 21:10 45.46512 5.37449 37994 ft 522 kts 63°
2026-05-06 21:11 45.50689 5.45858 37979 ft 521 kts 45°
2026-05-06 21:11 45.55829 5.52835 37981 ft 522 kts 41°
2026-05-06 21:12 45.61249 5.59742 37974 ft 523 kts 40°
2026-05-06 21:12 45.66677 5.66623 37963 ft 522 kts 41°
2026-05-06 21:13 45.72093 5.73547 37969 ft 522 kts 41°
2026-05-06 21:13 45.77500 5.80489 37975 ft 522 kts 41°
2026-05-06 21:14 45.82903 5.87443 37991 ft 522 kts 41°
2026-05-06 21:14 45.88293 5.94399 37989 ft 521 kts 41°
2026-05-06 21:15 45.93697 6.01383 37993 ft 523 kts 41°
2026-05-06 21:15 45.99097 6.08389 37993 ft 523 kts 41°
2026-05-06 21:16 46.04496 6.15417 37990 ft 522 kts 41°
2026-05-06 21:16 46.09874 6.22440 37961 ft 522 kts 41°
2026-05-06 21:17 46.15093 6.29713 37962 ft 522 kts 44°
2026-05-06 21:17 46.20182 6.37089 37955 ft 522 kts 44°
2026-05-06 21:18 46.25320 6.44502 37959 ft 522 kts 44°
2026-05-06 21:18 46.30475 6.51896 37954 ft 522 kts 44°
2026-05-06 21:19 46.35637 6.59296 37953 ft 523 kts 44°
2026-05-06 21:19 46.40803 6.66721 37947 ft 522 kts 44°
2026-05-06 21:20 46.45946 6.74139 37943 ft 521 kts 44°
2026-05-06 21:20 46.51081 6.81568 37949 ft 521 kts 44°
2026-05-06 21:21 46.56120 6.89149 37949 ft 522 kts 50°
2026-05-06 21:21 46.60758 6.97271 37955 ft 523 kts 51°
2026-05-06 21:22 46.65327 7.05502 37958 ft 523 kts 51°
2026-05-06 21:22 46.69878 7.13761 37958 ft 523 kts 51°
2026-05-06 21:23 46.74401 7.21975 37968 ft 523 kts 51°
2026-05-06 21:23 46.78939 7.30230 37941 ft 522 kts 51°
2026-05-06 21:24 46.83478 7.38507 37938 ft 522 kts 51°
2026-05-06 21:24 46.88020 7.46807 37938 ft 523 kts 52°
2026-05-06 21:25 46.92549 7.55137 37950 ft 523 kts 52°
2026-05-06 21:25 46.97069 7.63484 37949 ft 522 kts 52°
2026-05-06 21:26 47.01570 7.71814 37949 ft 521 kts 52°
2026-05-06 21:26 47.06062 7.80149 37953 ft 521 kts 52°
2026-05-06 21:27 47.10554 7.88507 37956 ft 521 kts 52°
2026-05-06 21:27 47.14807 7.97110 37952 ft 520 kts 57°
2026-05-06 21:28 47.18693 8.06058 37954 ft 519 kts 58°
2026-05-06 21:28 47.22518 8.15066 37951 ft 519 kts 59°
2026-05-06 21:29 47.26331 8.24088 37947 ft 519 kts 59°
2026-05-06 21:29 47.30886 8.32302 37940 ft 519 kts 41°
2026-05-06 21:30 47.36893 8.38074 37943 ft 517 kts 26°
2026-05-06 21:30 47.43359 8.42758 37946 ft 518 kts 24°
2026-05-06 21:31 47.49880 8.47288 37974 ft 518 kts 24°
2026-05-06 21:31 47.56391 8.51855 37965 ft 517 kts 25°
2026-05-06 21:32 47.62877 8.56466 37959 ft 517 kts 25°
2026-05-06 21:32 47.72606 8.63430 37947 ft 517 kts 25°
2026-05-06 21:33 47.79085 8.68083 37940 ft 517 kts 25°
2026-05-06 21:33 47.85566 8.72750 37937 ft 517 kts 25°
2026-05-06 21:34 47.92047 8.77427 37932 ft 517 kts 26°
2026-05-06 21:34 47.98522 8.82115 37798 ft 514 kts 26°
2026-05-06 21:35 48.01712 8.84429 37171 ft 511 kts 26°
2026-05-06 21:35 48.04873 8.86725 36373 ft 513 kts 25°
2026-05-06 21:35 48.08095 8.89069 35575 ft 515 kts 25°
2026-05-06 21:35 48.11317 8.91416 34852 ft 515 kts 25°
2026-05-06 21:36 48.14579 8.93623 34145 ft 515 kts 20°
2026-05-06 21:36 48.18001 8.95170 33327 ft 513 kts 11°
2026-05-06 21:36 48.20376 8.95773 32758 ft 512 kts
2026-05-06 21:36 48.25069 8.96577 31656 ft 511 kts
2026-05-06 21:37 48.27454 8.96949 31105 ft 511 kts
2026-05-06 21:37 48.30993 8.97491 30283 ft 511 kts
2026-05-06 21:37 48.34471 8.98022 29520 ft 508 kts
2026-05-06 21:37 48.38020 8.98563 28758 ft 503 kts
2026-05-06 21:38 48.41435 8.99085 28077 ft 497 kts
2026-05-06 21:38 48.44900 8.99614 27428 ft 491 kts
2026-05-06 21:38 48.48287 9.00134 26787 ft 486 kts
2026-05-06 21:38 48.51630 9.00646 26183 ft 480 kts
2026-05-06 21:39 48.54929 9.01149 25593 ft 474 kts
2026-05-06 21:39 48.58195 9.01647 24972 ft 469 kts
2026-05-06 21:39 48.61427 9.02141 24381 ft 464 kts
2026-05-06 21:39 48.64578 9.02652 23751 ft 460 kts
2026-05-06 21:40 48.67760 9.03401 23199 ft 453 kts
2026-05-06 21:40 48.70815 9.04179 22441 ft 450 kts
2026-05-06 21:40 48.73897 9.04949 21634 ft 448 kts
2026-05-06 21:40 48.76949 9.05699 21311 ft 442 kts
2026-05-06 21:41 48.79994 9.06438 21044 ft 444 kts
2026-05-06 21:41 48.83040 9.07173 20785 ft 442 kts
2026-05-06 21:41 48.86072 9.07903 20528 ft 441 kts
2026-05-06 21:41 48.89102 9.08629 20273 ft 440 kts
2026-05-06 21:42 48.92138 9.09141 20019 ft 438 kts
2026-05-06 21:42 48.95171 9.09522 19769 ft 437 kts
2026-05-06 21:42 48.98191 9.09908 19521 ft 434 kts
2026-05-06 21:42 49.01193 9.10310 19263 ft 432 kts
2026-05-06 21:43 49.04180 9.10719 19016 ft 431 kts
2026-05-06 21:43 49.07161 9.11135 18793 ft 430 kts
2026-05-06 21:43 49.10130 9.11554 18548 ft 428 kts
2026-05-06 21:43 49.13100 9.11975 18304 ft 427 kts
2026-05-06 21:44 49.16051 9.12396 18055 ft 426 kts
2026-05-06 21:44 49.19004 9.12817 17779 ft 426 kts
2026-05-06 21:44 49.21953 9.13238 17469 ft 425 kts
2026-05-06 21:44 49.24867 9.13657 16883 ft 418 kts
2026-05-06 21:45 49.27759 9.14108 16078 ft 418 kts
2026-05-06 21:45 49.30606 9.14930 15372 ft 415 kts 11°
2026-05-06 21:45 49.33406 9.15911 14661 ft 412 kts 12°
2026-05-06 21:45 49.36185 9.16903 13994 ft 408 kts 12°
2026-05-06 21:46 49.38936 9.17884 13297 ft 404 kts 12°
2026-05-06 21:46 49.41657 9.18855 12646 ft 398 kts 12°
2026-05-06 21:46 49.44333 9.19809 12022 ft 392 kts 12°
2026-05-06 21:46 49.46979 9.20752 11344 ft 388 kts 12°
2026-05-06 21:47 49.49605 9.21337 10962 ft 374 kts
2026-05-06 21:47 49.52127 9.21204 10873 ft 353 kts 354°
2026-05-06 21:47 49.54498 9.20918 10869 ft 332 kts 353°
2026-05-06 21:47 49.56735 9.20648 10870 ft 312 kts 354°
2026-05-06 21:48 49.58839 9.20394 10867 ft 297 kts 354°
2026-05-06 21:48 49.60892 9.20144 10868 ft 295 kts 354°
2026-05-06 21:48 49.62944 9.19895 10850 ft 296 kts 353°
2026-05-06 21:48 49.65001 9.19647 10850 ft 297 kts 354°
2026-05-06 21:49 49.67058 9.19392 10862 ft 297 kts 353°
2026-05-06 21:49 49.69113 9.19138 10798 ft 292 kts 353°
2026-05-06 21:49 49.71128 9.18895 10382 ft 291 kts 353°
2026-05-06 21:49 49.73151 9.18664 9907 ft 292 kts 354°
2026-05-06 21:50 49.75175 9.18442 9459 ft 291 kts 353°
2026-05-06 21:50 49.77189 9.18228 8992 ft 290 kts 353°
2026-05-06 21:50 49.79194 9.18019 8573 ft 288 kts 353°
2026-05-06 21:50 49.81189 9.17817 8141 ft 287 kts 353°
2026-05-06 21:51 49.83173 9.17621 7721 ft 285 kts 353°
2026-05-06 21:51 49.85148 9.17432 7281 ft 284 kts 353°
2026-05-06 21:51 49.87114 9.17250 6941 ft 282 kts 353°
2026-05-06 21:51 49.89076 9.17073 6837 ft 283 kts 353°
2026-05-06 21:52 49.91053 9.16894 6447 ft 285 kts 353°
2026-05-06 21:52 49.93021 9.16722 6081 ft 281 kts 353°
2026-05-06 21:52 49.94960 9.16556 5685 ft 278 kts 354°
2026-05-06 21:52 49.96881 9.16393 5299 ft 275 kts 353°
2026-05-06 21:53 49.98712 9.15786 5007 ft 266 kts 333°
2026-05-06 21:53 50.00323 9.14399 4967 ft 264 kts 324°
2026-05-06 21:53 50.01865 9.12845 4966 ft 264 kts 324°
2026-05-06 21:53 50.03387 9.11246 4967 ft 264 kts 323°
2026-05-06 21:54 50.04905 9.09639 4964 ft 264 kts 323°
2026-05-06 21:54 50.06422 9.08031 4967 ft 264 kts 323°
2026-05-06 21:54 50.07914 9.06431 4966 ft 264 kts 323°
2026-05-06 21:54 50.09371 9.04700 4962 ft 263 kts 314°
2026-05-06 21:55 50.10322 9.02313 4971 ft 259 kts 289°
2026-05-06 21:55 50.10848 8.99631 4972 ft 259 kts 284°
2026-05-06 21:55 50.11282 8.97000 4976 ft 241 kts 284°
2026-05-06 21:55 50.11680 8.94559 4975 ft 224 kts 283°
2026-05-06 21:56 50.12052 8.92304 4978 ft 206 kts 283°
2026-05-06 21:56 50.12351 8.90179 5007 ft 198 kts 270°
2026-05-06 21:56 50.12062 8.88074 5162 ft 200 kts 252°
2026-05-06 21:56 50.11360 8.86229 5031 ft 199 kts 229°
2026-05-06 21:57 50.10374 8.84709 4992 ft 201 kts 224°
2026-05-06 21:57 50.09539 8.82979 4925 ft 201 kts 243°
2026-05-06 21:57 50.08953 8.80994 4817 ft 202 kts 249°
2026-05-06 21:57 50.08471 8.78949 4565 ft 202 kts 252°
2026-05-06 21:58 50.08027 8.76852 4102 ft 204 kts 252°
2026-05-06 21:58 50.07544 8.74763 3434 ft 209 kts 250°
2026-05-06 21:58 50.06950 8.72652 2701 ft 215 kts 246°
2026-05-06 21:58 50.06335 8.70600 2407 ft 199 kts 250°
2026-05-06 21:59 50.05853 8.68702 2241 ft 179 kts 251°
2026-05-06 21:59 50.05433 8.66947 2150 ft 169 kts 254°
2026-05-06 21:59 50.05077 8.65187 2250 ft 171 kts 256°
2026-05-06 21:59 50.04779 8.63398 2391 ft 170 kts 259°
2026-05-06 22:00 50.04466 8.61611 2558 ft 172 kts 256°
2026-05-06 22:00 50.04107 8.59832 2740 ft 173 kts 254°
2026-05-06 22:00 50.03717 8.58061 2946 ft 173 kts 254°
2026-05-06 22:00 50.03337 8.56280 3200 ft 177 kts 254°
2026-05-06 22:01 50.02937 8.54355 3426 ft 193 kts 254°
2026-05-06 22:01 50.02528 8.52344 3684 ft 196 kts 254°
2026-05-06 22:01 50.02126 8.50320 4242 ft 197 kts 254°
2026-05-06 22:01 50.01733 8.48278 4766 ft 196 kts 254°
2026-05-06 22:02 50.01351 8.46246 4982 ft 196 kts 254°
2026-05-06 22:02 50.00700 8.44404 4989 ft 198 kts 226°
2026-05-06 22:02 49.99481 8.43436 4988 ft 203 kts 191°
2026-05-06 22:02 49.98086 8.43766 4991 ft 209 kts 156°
2026-05-06 22:03 49.96995 8.45270 5001 ft 214 kts 129°
2026-05-06 22:03 49.96134 8.47250 4998 ft 233 kts 124°
2026-05-06 22:03 49.95263 8.49418 4985 ft 244 kts 123°
2026-05-06 22:03 49.94362 8.51670 4989 ft 246 kts 123°
2026-05-06 22:04 49.93458 8.53927 4992 ft 246 kts 123°
2026-05-06 22:04 49.92610 8.56139 4988 ft 231 kts 117°
2026-05-06 22:04 49.92323 8.58496 5013 ft 230 kts 85°
2026-05-06 22:04 49.92633 8.61022 4989 ft 244 kts 75°
2026-05-06 22:05 49.93089 8.63585 4991 ft 247 kts 73°
2026-05-06 22:05 49.93562 8.66142 4986 ft 247 kts 73°
2026-05-06 22:05 49.94036 8.68708 4990 ft 247 kts 73°
2026-05-06 22:05 49.94510 8.71274 4991 ft 247 kts 73°
2026-05-06 22:06 49.94984 8.73837 4990 ft 247 kts 73°
2026-05-06 22:06 49.95460 8.76402 4992 ft 247 kts 73°
2026-05-06 22:06 49.95935 8.78969 4987 ft 247 kts 73°
2026-05-06 22:06 49.96411 8.81533 4986 ft 247 kts 73°
2026-05-06 22:07 49.96885 8.84101 4989 ft 248 kts 73°
2026-05-06 22:07 49.97356 8.86667 4980 ft 247 kts 73°
2026-05-06 22:07 49.97829 8.89239 4982 ft 247 kts 73°
2026-05-06 22:07 49.98300 8.91808 4980 ft 247 kts 73°
2026-05-06 22:08 49.98772 8.94382 4978 ft 248 kts 73°
2026-05-06 22:08 49.99241 8.96953 4975 ft 247 kts 73°
2026-05-06 22:08 49.99711 8.99526 4978 ft 248 kts 73°
2026-05-06 22:08 50.00183 9.02102 4978 ft 247 kts 73°
2026-05-06 22:09 50.00654 9.04666 4978 ft 247 kts 73°
2026-05-06 22:09 50.01350 9.07083 4967 ft 245 kts 51°
2026-05-06 22:09 50.02665 9.08693 4976 ft 240 kts 20°
2026-05-06 22:09 50.04282 9.09064 4975 ft 235 kts 352°
2026-05-06 22:10 50.05887 9.08630 4971 ft 235 kts 344°
2026-05-06 22:10 50.07476 9.08042 4975 ft 235 kts 344°
2026-05-06 22:10 50.09051 9.07399 4970 ft 235 kts 343°
2026-05-06 22:10 50.10624 9.06731 4968 ft 233 kts 340°
2026-05-06 22:11 50.11964 9.05381 4971 ft 229 kts 309°
2026-05-06 22:11 50.12806 9.03309 4972 ft 227 kts 295°
2026-05-06 22:11 50.13489 9.01081 4964 ft 226 kts 294°
2026-05-06 22:11 50.14045 8.98892 4969 ft 208 kts 283°
2026-05-06 22:12 50.13962 8.96748 4986 ft 197 kts 250°
2026-05-06 22:12 50.13383 8.94851 4986 ft 198 kts 242°
2026-05-06 22:12 50.12691 8.92948 4984 ft 200 kts 240°
2026-05-06 22:12 50.11950 8.91120 4881 ft 198 kts 240°
2026-05-06 22:13 50.11350 8.89237 4700 ft 191 kts 248°
2026-05-06 22:13 50.10874 8.87351 4398 ft 188 kts 250°
2026-05-06 22:13 50.10416 8.85465 4099 ft 183 kts 252°
2026-05-06 22:13 50.09982 8.83656 3839 ft 174 kts 252°
2026-05-06 22:14 50.09572 8.81940 3586 ft 164 kts 252°
2026-05-06 22:14 50.09183 8.80313 3362 ft 156 kts 252°
2026-05-06 22:14 50.08815 8.78778 3160 ft 148 kts 253°
2026-05-06 22:14 50.08464 8.77304 2967 ft 144 kts 253°
2026-05-06 22:15 50.08117 8.75850 2773 ft 143 kts 253°
2026-05-06 22:15 50.07771 8.74403 2577 ft 142 kts 253°
2026-05-06 22:15 50.07427 8.72960 2395 ft 142 kts 253°
2026-05-06 22:15 50.07086 8.71537 2187 ft 137 kts 253°
2026-05-06 22:16 50.06762 8.70184 2012 ft 132 kts 254°
2026-05-06 22:16 50.06446 8.68854 1836 ft 131 kts 253°
2026-05-06 22:16 50.06128 8.67526 1654 ft 130 kts 253°
2026-05-06 22:16 50.05813 8.66209 1482 ft 129 kts 253°
2026-05-06 22:17 50.05501 8.64901 1298 ft 129 kts 252°
2026-05-06 22:17 50.05187 8.63588 1109 ft 130 kts 252°
2026-05-06 22:17 50.04872 8.62270 927 ft 130 kts 252°
2026-05-06 22:17 50.04558 8.60957 737 ft 130 kts 252°
2026-05-06 22:18 50.04243 8.59639 574 ft 131 kts 252°
2026-05-06 22:18 50.03928 8.58319 412 ft 129 kts 252°
2026-05-06 22:18 50.03622 8.57034 369 ft 120 kts 250°
2026-05-06 22:18 50.03350 8.55902 370 ft 105 kts 250°
2026-05-06 22:19 50.03184 8.55141 366 ft 23 kts 268°
2026-05-06 22:19 50.03183 8.54926 366 ft 21 kts 272°
2026-05-06 22:19 50.03184 8.54899 371 ft 0 kts 271°
2026-05-06 22:19 50.03184 8.54898 371 ft 0 kts 274°
2026-05-06 22:20 50.03184 8.54896 371 ft 1 kts 277°
2026-05-06 22:20 50.03186 8.54882 367 ft 2 kts 279°
2026-05-06 22:20 50.03189 8.54854 371 ft 3 kts 279°
2026-05-06 22:21 50.03193 8.54814 367 ft 4 kts 279°
2026-05-06 22:21 50.03197 8.54782 369 ft 0 kts 279°
2026-05-06 22:22 50.03199 8.54766 365 ft 3 kts 279°
2026-05-06 22:22 50.03203 8.54727 367 ft 5 kts 279°
2026-05-06 22:22 50.03205 8.54709 373 ft 0 kts 280°
2026-05-06 22:23 50.03207 8.54696 373 ft 3 kts 281°
2026-05-06 22:23 50.03207 8.54694 372 ft 0 kts 282°
2026-05-06 22:23 50.03209 8.54680 374 ft 3 kts 284°
2026-05-06 22:24 50.03222 8.54650 373 ft 4 kts 313°
2026-05-06 22:24 50.03253 8.54630 373 ft 5 kts 356°
2026-05-06 22:24 50.03288 8.54666 375 ft 7 kts 50°
2026-05-06 22:24 50.03307 8.54716 375 ft 2 kts 64°
2026-05-06 22:25 50.03315 8.54746 375 ft 0 kts 65°
2026-05-06 22:26 50.03319 8.54757 373 ft 4 kts 65°
2026-05-06 22:26 50.03348 8.54870 373 ft 18 kts 70°
2026-05-06 22:26 50.03407 8.55117 372 ft 30 kts 70°
2026-05-06 22:26 50.03491 8.55470 371 ft 38 kts 70°
2026-05-06 22:27 50.03589 8.55877 373 ft 42 kts 70°
2026-05-06 22:27 50.03695 8.56320 372 ft 45 kts 70°
2026-05-06 22:27 50.03802 8.56766 373 ft 37 kts 69°
2026-05-06 22:27 50.03893 8.57148 373 ft 38 kts 70°
2026-05-06 22:28 50.03987 8.57539 373 ft 38 kts 69°
2026-05-06 22:28 50.04078 8.57919 374 ft 36 kts 69°
2026-05-06 22:28 50.04163 8.58271 372 ft 33 kts 70°
2026-05-06 22:28 50.04241 8.58596 376 ft 31 kts 71°
2026-05-06 22:29 50.04314 8.58893 375 ft 28 kts 69°
2026-05-06 22:29 50.04379 8.59169 372 ft 26 kts 69°
2026-05-06 22:29 50.04435 8.59397 373 ft 18 kts 62°
2026-05-06 22:29 50.04477 8.59449 374 ft 0 kts 22°
2026-05-06 22:31 50.04489 8.59455 375 ft 7 kts 18°
2026-05-06 22:31 50.04501 8.59461 376 ft 0 kts 15°
2026-05-06 22:31 50.04518 8.59464 373 ft 8 kts
2026-05-06 22:31 50.04606 8.59464 372 ft 18 kts 355°
2026-05-06 22:32 50.04730 8.59423 375 ft 0 kts 342°
2026-05-06 22:32 50.04741 8.59418 374 ft 6 kts 342°
2026-05-06 22:32 50.04784 8.59396 373 ft 0 kts 342°
2026-05-06 22:33 50.04815 8.59364 374 ft 11 kts 316°
2026-05-06 22:34 50.04829 8.59210 375 ft 19 kts 255°
2026-05-06 22:34 50.04790 8.59031 373 ft 0 kts 251°
2026-05-06 22:34 50.04787 8.59019 374 ft 7 kts 251°
2026-05-06 22:35 50.04760 8.58905 376 ft 7 kts 250°
2026-05-06 22:35 50.04749 8.58854 372 ft 1 kts 251°
2026-05-06 22:41 50.04748 8.58850 367 ft 0 kts 253°
2026-05-06 22:42 50.04732 8.58782 372 ft 18 kts 248°
2026-05-06 22:42 50.04660 8.58507 375 ft 31 kts 249°
2026-05-06 22:42 50.04595 8.58237 373 ft 14 kts 249°
2026-05-06 22:43 50.04590 8.58219 372 ft 0 kts 249°
2026-05-06 22:43 50.04589 8.58213 372 ft 1 kts 249°
2026-05-06 22:43 50.04587 8.58205 373 ft 3 kts 249°
2026-05-06 22:43 50.04560 8.58096 371 ft 18 kts 250°
2026-05-06 22:44 50.04507 8.57871 371 ft 28 kts 250°
2026-05-06 22:44 50.04484 8.57612 370 ft 27 kts 295°
2026-05-06 22:44 50.04545 8.57525 373 ft 0 kts 329°
2026-05-06 22:44 50.04562 8.57506 372 ft 7 kts 323°
2026-05-06 22:45 50.04583 8.57416 372 ft 12 kts 268°
2026-05-06 22:45 50.04560 8.57281 370 ft 11 kts 251°
2026-05-06 22:45 50.04555 8.57263 373 ft 5 kts 250°
2026-05-06 22:45 50.04535 8.57179 372 ft 12 kts 249°
2026-05-06 22:46 50.04499 8.57037 370 ft 8 kts 248°
2026-05-06 22:46 50.04492 8.56941 368 ft 9 kts 289°
2026-05-06 22:46 50.04541 8.56902 368 ft 9 kts 357°
2026-05-06 22:46 50.04612 8.56918 371 ft 12 kts 13°
2026-05-06 22:47 50.04697 8.56969 373 ft 15 kts 22°
2026-05-06 22:47 50.04738 8.56996 373 ft 2 kts 23°
2026-05-06 22:47 50.04744 8.56997 373 ft 1 kts 13°
2026-05-06 22:47 50.04757 8.56990 370 ft 3 kts 333°
2026-05-06 22:48 50.04786 8.56945 371 ft 3 kts 304°
2026-05-06 22:48 50.04792 8.56927 371 ft 0 kts 297°